Temperature
6 6 6 6 5 5 5 5 4 4 4 5 5 5 5 5 5 5 5 5 5 5 5 5 5 5 5 5 5 5 5 5 5 5 5 5 5 4
6 5 5 6 5 5 5 5 4 4 4 4 4 4 4 4 4 4 4 5 5 5 4 4 4 4 4 4 4 4 4 4 4 4 4 4 4 4
5 5 5 5 5 5 5 5 4 4 4 4 4 4 4 4 4 4 4 4 4 4 4 4 4 4 4 4 4 4 4 4 4 4 4 4 4 4
5 5 5 5 5 5 5 4 4 4 4 4 4 4 4 4 4 4 4 4 4 4 4 4 4 4 4 4 4 4 4 3 3 3 3 3 4 4
5 5 5 5 5 5 4 4 4 4 4 3 3 3 3 3 3 4 4 4 4 4 4 4 4 4 3 3 3 3 3 3 3 3 3 3 3 3
4 4 4 4 4 4 4 4 4 3 3 3 3 3 3 3 3 3 3 4 4 4 3 3 3 3 3 3 3 3 3 3 3 3 3 3 3 3
4 4 4 4 4 4 4 4 3 3 3 3 3 3 3 3 3 3 3 3 3 3 3 3 3 3 3 3 3 3 3 3 3 2 2 3 2 2
4 4 4 4 3 3 3 3 3 3 3 3 3 3 3 3 3 3 3 3 3 3 3 3 3 3 2 2 2 2 2 2 2 2 2 2 2 2
4 4 3 3 3 3 3 3 3 3 3 3 2 2 2 2 2 2 2 2 2 2 2 3 3 2 2 2 2 2 2 2 2 2 2 2 2 2
4 3 3 3 3 3 3 3 3 3 2 2 2 2 2 2 2 2 2 2 2 2 1 1 2 2 2 1 1 1 1 1 1 1 1 1 1 1
3 3 3 3 3 3 3 3 3 2 2 2 2 2 2 2 2 2 2 2 2 1 1 1 1 1 1 1 1 1 1 1 1 1 1 1 1 1
3 3 3 3 3 2 2 2 2 2 2 2 2 2 2 2 2 1 1 1 1 1 0 0 0 -0 0 0 -0 0 0 0 0 0 0 1 1 1
3 2 2 2 2 2 2 2 2 2 2 2 1 1 1 1 1 1 1 1 0 0 -0 -0 -0 -1 -1 -1 -0 -0 -0 -0 0 0 -0 0 0 0
2 2 2 2 2 2 2 2 1 1 1 1 1 1 1 1 1 1 1 0 0 -0 -0 -0 -1 -1 -1 -2 -1 -1 -1 -1 -1 -0 -0 -0 -0 -0
2 2 2 1 1 1 1 1 1 1 1 1 1 0 0 0 1 1 0 0 0 -0 -0 -1 -1 -1 -2 -2 -2 -2 -1 -1 -1 -1 -1 -1 -1 -1
2 1 1 1 1 1 1 1 1 0 0 0 0 0 0 0 0 0 0 0 -0 -0 -1 -1 -1 -2 -2 -2 -2 -2 -2 -2 -2 -1 -1 -1 -1 -1
1 1 1 1 1 1 1 0 0 -0 -0 0 0 0 -0 -0 -0 -0 -0 -0 -1 -1 -1 -1 -1 -2 -2 -2 -2 -2 -2 -2 -2 -2 -2 -1 -1 -1
1 1 1 1 0 0 -0 -0 -0 -0 -0 -0 -0 -0 -0 -1 -1 -1 -1 -1 -1 -1 -2 -2 -2 -2 -2 -2 -2 -2 -2 -2 -2 -2 -2 -2 -1 -1
0 0 0 -0 -0 -0 -0 -0 -1 -1 -1 -1 -1 -1 -1 -1 -1 -1 -1 -1 -2 -2 -2 -2 -3 -3 -3 -3 -3 -3 -3 -3 -3 -2 -2 -2 -2 -1
-0 -0 -0 -0 -1 -1 -1 -1 -1 -1 -1 -1 -1 -1 -1 -1 -1 -2 -2 -2 -2 -2 -3 -3 -3 -3 -4 -4 -4 -3 -3 -3 -3 -3 -2 -2 -2 -1
-1 -1 -1 -1 -1 -1 -1 -1 -1 -1 -1 -1 -1 -1 -2 -2 -2 -2 -2 -2 -3 -3 -3 -3 -3 -4 -4 -4 -4 -3 -3 -3 -3 -3 -3 -2 -2 -2
-1 -1 -1 -1 -1 -1 -1 -1 -1 -1 -1 -2 -2 -2 -2 -2 -2 -2 -3 -3 -3 -3 -3 -3 -4 -4 -4 -4 -4 -4 -3 -3 -3 -3 -3 -3 -3 -3
-1 -1 -2 -2 -2 -2 -2 -2 -2 -2 -2 -2 -2 -2 -2 -2 -3 -3 -3 -3 -3 -3 -4 -4 -4 -4 -4 -4 -4 -4 -3 -3 -3 -2 -2 -2 -3 -3
Wind_Speed
3 2 2 2 2 2 2 2 2 4 5 4 3 3 5 5 8 7 6 9 10 10 9 10 10 10 12 12 12 13 14 14 13 13 14 15 16 15
2 2 2 2 2 2 2 2 2 3 4 3 3 4 5 6 8 7 7 10 10 10 10 10 10 11 12 12 13 13 13 14 14 14 14 14 15 14
2 2 3 2 2 2 1 1 1 1 4 5 4 4 5 5 6 6 6 6 6 9 10 11 11 12 12 12 12 13 14 14 14 14 14 14 14 13
2 2 2 2 2 1 1 1 2 2 2 5 5 4 5 5 5 5 6 6 5 8 10 11 11 12 13 13 13 13 14 13 13 14 15 15 14 12
2 2 2 2 2 1 1 1 2 2 2 3 5 4 4 4 5 5 5 5 6 7 9 10 11 11 12 13 13 13 13 13 14 14 15 15 14 12
2 2 2 2 2 2 1 2 1 1 2 2 3 4 4 4 4 5 5 5 5 6 8 9 10 11 12 12 13 13 13 13 14 15 15 15 14 13
1 1 1 2 2 1 1 1 1 1 2 2 3 3 4 5 4 4 5 6 5 4 5 6 6 6 8 11 13 14 13 13 14 15 15 15 14 14
1 2 2 1 2 2 2 2 2 1 1 2 2 3 4 4 4 4 4 4 4 4 5 6 4 5 6 7 13 15 14 14 14 15 15 15 14 14
1 1 2 2 2 1 2 3 3 4 2 1 2 3 4 4 3 4 4 4 4 5 5 5 5 5 6 9 13 14 13 14 15 15 15 15 15 14
1 0 1 1 2 1 2 2 3 3 3 2 1 2 2 2 2 2 3 3 2 3 3 3 4 4 6 7 11 14 15 15 15 16 16 15 15 14
1 1 1 0 2 3 3 2 3 4 5 6 6 5 6 6 4 3 3 3 3 3 3 3 4 5 5 4 8 14 15 16 16 16 16 15 15 14
1 1 2 2 3 3 2 2 2 2 3 5 6 7 6 7 9 5 2 2 2 3 4 4 4 5 4 3 4 8 11 14 16 17 17 16 16 11
1 1 1 3 4 4 3 2 2 3 2 3 4 4 5 5 5 5 4 2 1 1 3 3 3 3 3 5 5 5 7 8 10 12 15 16 16 12
0 1 1 4 4 5 4 5 6 5 3 3 3 4 4 4 4 5 5 4 2 1 3 3 2 3 4 5 5 5 6 7 7 8 9 13 14 14
1 3 4 4 4 3 5 7 6 3 3 3 3 3 2 2 3 4 4 4 4 3 4 4 2 3 2 3 5 5 6 6 6 7 7 8 7 8
2 3 5 6 5 5 5 4 3 2 2 2 2 2 2 3 3 3 3 4 3 4 5 5 5 3 3 4 4 5 5 5 7 8 7 6 6 7
3 3 3 3 4 4 3 3 3 3 3 3 2 2 3 3 3 3 3 3 3 4 6 5 6 5 3 3 3 5 5 5 6 7 7 7 6 6
5 3 3 2 2 2 2 2 2 2 2 2 2 2 2 2 3 3 2 3 3 4 4 5 6 6 4 2 2 4 5 5 6 7 5 6 7 6
4 3 2 1 1 1 1 1 1 2 2 2 2 2 2 2 2 3 3 3 3 3 4 4 4 4 5 6 5 3 4 6 7 6 5 4 6 8
2 2 1 1 1 1 1 1 1 2 2 2 1 1 1 2 2 2 2 3 3 4 4 4 3 3 3 4 5 5 7 5 5 6 6 5 5 8
2 2 1 1 1 1 1 1 1 1 1 1 1 1 1 1 2 2 2 4 4 3 4 4 5 7 4 3 4 5 5 7 6 5 6 6 6 6
1 1 1 1 1 1 1 1 1 1 1 1 1 1 1 1 2 2 2 2 3 3 4 4 5 4 3 3 4 6 6 7 8 9 8 5 3 3
1 1 1 1 1 1 0 0 0 0 1 1 1 1 1 1 1 1 2 2 3 3 4 4 4 3 3 3 4 5 6 7 6 6 6 8 8 8
Wind_Direction
259 260 260 263 254 253 253 251 261 301 310 315 324 330 336 337 335 344 342 342 342 341 341 340 338 334 336 337 333 330 331 329 318 309 304 301 299 294
264 262 267 265 262 254 251 256 246 260 290 310 310 312 322 329 333 342 340 339 343 341 341 342 339 336 342 345 341 336 336 333 329 320 312 306 303 298
286 273 280 277 269 269 261 257 258 258 282 304 311 319 326 322 329 339 339 339 341 342 346 349 347 345 347 344 340 338 336 334 331 326 322 318 311 305
278 280 283 288 287 283 269 267 268 265 269 297 314 325 320 319 322 332 341 346 345 342 346 346 344 346 347 345 344 341 339 338 335 331 327 324 317 312
264 264 274 273 290 303 294 275 278 290 282 285 305 318 322 327 335 336 337 337 344 344 345 343 340 344 343 342 342 341 341 339 336 333 331 330 326 317
258 252 260 258 265 273 280 272 281 311 314 302 309 322 326 327 334 337 339 341 338 344 344 345 344 344 344 342 342 342 343 343 342 340 338 337 333 325
283 271 263 290 306 311 309 301 327 320 320 320 317 327 331 337 334 327 329 328 330 345 337 341 344 347 345 343 345 347 349 348 346 344 343 342 342 338
284 304 305 297 311 325 336 353 355 324 303 306 308 320 317 321 326 332 332 338 331 343 342 331 348 342 341 344 347 352 353 352 351 352 352 350 347 344
263 308 341 329 337 338 0 13 7 4 354 317 303 303 300 304 317 329 331 332 318 325 336 325 337 335 337 340 349 355 358 358 356 355 355 356 353 347
275 268 312 325 332 25 47 30 14 9 360 356 336 313 319 321 304 304 311 322 310 331 351 329 333 326 326 330 348 360 2 359 356 356 355 356 353 349
351 2 338 320 354 47 70 52 32 21 26 37 35 33 27 22 22 21 0 356 343 340 1 347 328 321 316 322 346 360 1 0 359 357 357 357 355 351
13 358 357 15 19 45 78 83 52 18 22 26 29 28 29 27 27 29 7 0 353 341 350 350 336 340 333 323 338 348 353 355 357 357 357 356 354 352
27 357 350 19 40 48 57 69 62 65 53 47 38 28 25 24 23 23 21 21 11 328 333 349 339 344 328 315 325 339 349 349 350 351 354 356 356 356
87 6 28 45 55 60 67 59 65 66 65 56 47 31 21 14 7 11 16 22 20 306 315 345 338 333 332 324 320 329 336 344 349 347 347 348 352 354
89 69 63 63 66 67 64 66 68 64 65 59 41 18 1 349 360 4 8 11 9 4 353 343 335 318 315 311 315 322 327 333 346 346 344 344 343 343
77 68 67 69 70 61 60 62 54 58 66 62 32 11 8 13 14 5 360 356 3 354 351 350 339 327 316 303 304 315 321 321 331 335 332 330 333 337
89 72 58 59 54 48 49 51 46 44 48 44 40 27 18 17 4 356 1 10 14 348 341 343 339 317 276 295 310 312 318 319 319 329 334 333 330 334
89 83 72 67 65 54 47 38 37 38 38 41 37 27 16 6 358 355 2 12 3 347 340 337 342 346 345 322 267 304 321 320 322 327 329 329 329 333
82 84 83 79 65 57 47 49 36 21 31 41 34 21 9 358 359 1 1 360 353 342 336 337 349 360 358 344 326 315 320 320 325 329 330 321 313 318
65 74 76 72 68 61 48 39 40 40 35 28 22 18 10 0 357 355 353 350 341 338 337 339 344 343 329 309 306 309 313 310 320 326 325 316 306 307
58 59 60 63 69 61 48 43 51 48 25 17 9 6 358 353 348 342 340 343 345 338 333 325 312 316 299 302 311 317 317 317 314 309 318 325 330 337
64 58 48 48 56 57 52 43 44 33 16 9 346 341 341 338 334 331 331 329 327 322 314 311 318 334 348 340 322 315 320 327 328 326 320 311 312 331
50 46 43 42 45 50 71 41 5 334 324 318 316 320 325 325 314 310 313 315 319 322 326 329 335 340 331 316 314 314 320 327 334 341 337 332 322 306
Height
1478 1477 1477 1476 1476 1475 1474 1473 1472 1467 1464 1463 1461 1460 1458 1456 1454 1451 1449 1447 1445 1444 1442 1440 1438 1436 1433 1431 1429 1426 1423 1420 1418 1416 1415 1414 1413 1412
1474 1474 1473 1473 1472 1472 1471 1470 1469 1468 1464 1461 1460 1458 1456 1454 1452 1450 1448 1446 1444 1441 1439 1437 1435 1432 1430 1427 1425 1422 1419 1416 1413 1412 1410 1409 1407 1406
1472 1471 1470 1470 1469 1469 1468 1467 1466 1465 1462 1459 1458 1456 1454 1452 1449 1448 1446 1443 1441 1439 1436 1434 1432 1429 1427 1424 1422 1419 1416 1413 1410 1407 1406 1404 1402 1401
1468 1468 1467 1467 1466 1466 1465 1464 1463 1463 1461 1458 1456 1454 1452 1450 1447 1445 1443 1441 1439 1436 1434 1431 1429 1427 1424 1421 1418 1415 1412 1409 1406 1404 1402 1399 1398 1396
1466 1465 1464 1464 1463 1463 1462 1461 1461 1460 1459 1456 1454 1452 1450 1448 1446 1443 1441 1439 1437 1434 1431 1429 1426 1424 1421 1418 1415 1412 1409 1406 1403 1400 1398 1395 1393 1392
1463 1463 1462 1461 1461 1461 1460 1459 1458 1457 1456 1454 1452 1450 1448 1446 1444 1441 1438 1437 1434 1432 1429 1426 1424 1421 1419 1416 1413 1409 1406 1403 1400 1397 1395 1392 1389 1388
1461 1460 1460 1459 1459 1459 1458 1457 1456 1455 1454 1452 1451 1449 1447 1445 1443 1440 1438 1435 1432 1430 1426 1424 1421 1419 1416 1413 1410 1407 1404 1401 1398 1395 1392 1389 1386 1384
1458 1458 1457 1457 1457 1457 1456 1455 1454 1453 1452 1451 1449 1448 1446 1444 1442 1440 1437 1434 1430 1429 1425 1423 1420 1417 1414 1411 1408 1405 1402 1399 1396 1393 1390 1386 1384 1382
1456 1456 1455 1455 1455 1454 1454 1453 1452 1451 1451 1450 1448 1447 1445 1444 1442 1439 1437 1434 1431 1428 1425 1421 1419 1416 1413 1410 1407 1404 1401 1398 1395 1391 1388 1385 1382 1380
1454 1454 1453 1453 1452 1452 1452 1451 1450 1449 1449 1448 1447 1446 1445 1443 1441 1439 1437 1434 1431 1429 1425 1422 1418 1415 1412 1409 1406 1403 1400 1397 1394 1390 1387 1384 1381 1379
1453 1452 1452 1451 1451 1451 1450 1449 1449 1448 1448 1447 1446 1445 1444 1442 1440 1438 1435 1433 1430 1428 1425 1422 1418 1414 1411 1409 1406 1403 1399 1396 1393 1390 1386 1383 1381 1378
1451 1451 1450 1450 1450 1450 1449 1448 1447 1447 1446 1445 1445 1444 1442 1441 1439 1437 1435 1433 1430 1427 1425 1422 1419 1415 1411 1408 1406 1403 1399 1396 1393 1389 1386 1383 1380 1376
1449 1449 1449 1449 1449 1448 1448 1448 1447 1447 1446 1445 1444 1443 1442 1440 1439 1437 1435 1433 1431 1428 1426 1423 1419 1416 1413 1409 1405 1403 1400 1396 1392 1389 1386 1383 1380 1376
1448 1448 1448 1448 1448 1447 1447 1447 1447 1446 1445 1444 1443 1442 1441 1440 1438 1437 1435 1434 1432 1429 1427 1424 1420 1417 1414 1409 1406 1402 1400 1396 1393 1389 1386 1383 1380 1377
1446 1447 1447 1447 1446 1446 1446 1446 1446 1445 1444 1443 1442 1442 1441 1440 1438 1437 1435 1434 1432 1429 1427 1424 1421 1418 1415 1411 1407 1403 1399 1396 1393 1390 1386 1383 1379 1376
1445 1445 1445 1446 1445 1445 1445 1445 1444 1444 1443 1443 1442 1441 1441 1439 1438 1436 1434 1433 1431 1429 1427 1424 1421 1418 1414 1411 1408 1404 1401 1398 1394 1390 1387 1383 1380 1377
1443 1443 1444 1444 1444 1444 1444 1444 1444 1443 1443 1442 1442 1441 1440 1438 1437 1436 1434 1432 1429 1427 1425 1423 1421 1418 1415 1412 1408 1405 1402 1398 1395 1391 1387 1383 1380 1377
1442 1442 1442 1442 1442 1443 1443 1442 1443 1442 1442 1441 1441 1440 1439 1438 1437 1435 1433 1431 1429 1427 1424 1422 1419 1416 1414 1411 1409 1406 1402 1399 1395 1392 1388 1384 1380 1378
1441 1441 1441 1441 1441 1442 1442 1442 1442 1442 1441 1441 1440 1440 1439 1437 1436 1434 1433 1431 1429 1427 1425 1422 1419 1416 1413 1410 1409 1407 1403 1399 1395 1392 1389 1385 1381 1378
1439 1440 1440 1440 1441 1441 1441 1441 1441 1441 1440 1440 1439 1439 1438 1436 1435 1434 1432 1430 1428 1426 1425 1422 1420 1417 1415 1413 1409 1406 1404 1400 1396 1392 1388 1385 1382 1379
1438 1439 1439 1439 1440 1440 1440 1440 1440 1440 1439 1439 1438 1437 1436 1435 1434 1433 1431 1430 1428 1426 1423 1422 1420 1418 1416 1413 1409 1406 1403 1401 1397 1393 1389 1385 1381 1378
1438 1438 1438 1439 1439 1439 1439 1439 1438 1438 1438 1438 1437 1436 1435 1434 1433 1432 1430 1429 1427 1425 1423 1422 1420 1418 1415 1412 1409 1406 1402 1400 1398 1395 1391 1388 1385 1380
1436 1437 1437 1437 1438 1437 1437 1437 1437 1437 1436 1436 1435 1435 1434 1433 1432 1431 1429 1428 1426 1424 1422 1420 1419 1416 1414 1412 1409 1406 1403 1400 1397 1394 1392 1389 1387 1384